Regional Weather Roundup
Issued by NWS

Home | Current Version | Previous Version | Graphics & Text | Print | Product List | Glossary On
Versions: 1 2 3 4 5 6 7 8 9 10 11 12 13 14 15 16 17 18 19 20 21 22 23 24 25 26 27 28 29 30 31 32 33 34 35 36 37 38 39 40 41 42 43 44 45 46 47 48 49 50
071
ASUS45 KCYS 120210
RWRWY

WYOMING REGIONAL WEATHER ROUNDUP
NATIONAL WEATHER SERVICE CHEYENNE WY
700 PM MST THU FEB 11 2016

NOTE:  "FAIR" INDICATES FEW OR NO CLOUDS BELOW 12,000 FEET
WITH NO SIGNIFICANT WEATHER AND/OR OBSTRUCTIONS TO VISIBILITY.

WYZ001-120300-
YELLOWSTONE NATIONAL PARK

CITY           SKY/WX    TMP DP  RH WIND       PRES   REMARKS
LK YELLOWSTONE   N/A     33  22  63 CALM      30.36S
W YELLOWSTONE  NOT AVBL

$$
WYZ002>013-054>058-071-098>099-120300-
NORTHERN WYOMING

CITY           SKY/WX    TMP DP  RH WIND       PRES   REMARKS
JACKSON        PTCLDY    37  27  65 CALM      30.35R
CODY           FAIR      45  18  33 NE7       30.22R
GREYBULL       FAIR      48  24  39 SE5       30.19R
WORLAND        FAIR      42  27  55 SW7       30.21R
SHERIDAN       MOCLDY    45  21  39 CALM      30.18S
BUFFALO        FAIR      42  23  46 N9        30.21R
GILLETTE       FAIR      41  26  55 W10       30.18R
HULETT         FAIR      37  30  75 CALM      30.20R
NEWCASTLE      FAIR      41  23  48 N8        30.17S

$$
WYZ014>020-022>026-101>103-120300-
CENTRAL WYOMING

CITY           SKY/WX    TMP DP  RH WIND       PRES   REMARKS
BIG PINEY      FAIR      34  25  69 SE7       30.35R WCI  28
PINEDALE         N/A     32  23  69 CALM      30.36R
DUBOIS         CLOUDY    39  21  48 N8        30.30R WCI  34
LANDER         CLOUDY    41  25  53 SW6       30.24R
RIVERTON       FAIR      40  24  53 CALM      30.26R
CASPER         FAIR      37  26  64 SW7       30.25R WCI  32
DOUGLAS        FAIR      35  27  72 W6        30.25R WCI  30

$$
WYZ021-027>030-104>119-120300-
SOUTHERN WYOMING

CITY           SKY/WX    TMP DP  RH WIND       PRES   REMARKS
EVANSTON       FAIR      39  18  42 SW8       30.40R WCI  33
KEMMERER       FAIR      36  18  48 W7        30.39S WCI  30
FORT BRIDGER   CLEAR     43  19  39 W18       30.40S
ROCK SPRINGS   FAIR      37  22  54 SW10      30.37R WCI  30
DIXON          CLOUDY    29  20  68 CALM      30.40S
RAWLINS        FAIR      37  22  54 W18       30.30S WCI  27
SARATOGA       FAIR      34  23  64 N5        30.34R WCI  30
LARAMIE        FAIR      39  23  52 W16       30.27R WCI  30
CHEYENNE       FAIR      43  24  47 N13G22    30.24R
TORRINGTON     FAIR      43  27  53 NW8       30.20R
PINE BLUFFS    FAIR      37  27  65 NW3       30.27R

$$




USA.gov is the U.S. government's official web portal to all federal, state and local government web resources and services.